Погода в Придорожном

Россия / Самарская область     53°05′10″N   50°09′34″E
темп.,
°C
ветер,
м/с
пор.,
м/с
влажн.,
%
обл.,
%
осадки,
мм/ч
давл.,
гПа
погр.,
м
21 апреля, ср
ср2101:00+4юв81749100 0.0 1026618
04:00+4юв81747100 0.0 1026676
07:00+4юв81648100 0.0 1026742
10:00+4юв91851100 0.1 1025677
13:00+5ююв91748100 0.0 1025831
16:00+4юв81667100 1.5 1025858
19:00+4ююв81789100 3.6 1025804
22:00+4ююв81590100 4.5 1025764
22 апреля, чт
чт2201:00+4ююв71393100 2.4 1024626
04:00+5ю51294100 4.6 1025580
07:00+5ююв51187100 0.9 1026542
10:00+5ююв51087100 0.9 1027484
13:00+7ююв578257 0.1 1027576
16:00+7ююв6879100 0.1 1027594
19:00+6юв5985100 0.0 1027537
22:00+5ююв488788 0.0 1027429
23 апреля, пт
пт2301:00+5ююв4690100 0.0 1027377
04:00+5юв3483100 0.0 1027247
07:00+6в238799 0.0 1027214
10:00+8всв4479100 0.0 1026648
13:00+12в4561100 0.0 10241150
16:00+13в4552100 0.0 10231365
19:00+11вюв3665100 0.0 1022221
22:00+9вюв2578100 0.0 1021152
24 апреля, сб
сб2401:00+8ююв3689100 0.0 1019275
04:00+8всв2492100 2.6 1018237
07:00+7всв3592100 1.1 1016372
10:00+8всв1287100 1.3 1015338
13:00+8ссз2289100 0.3 1015313
16:00+8ссз1185100 0.3 1014335
19:00+8ю128388 0.0 1014273
22:00+8юв35899 0.0 1013127
25 апреля, вс
вс2501:00+8ю51288100 0.1 1012473
04:00+8ююз61295100 1.3 1011529
07:00+7з610800 0.1 1014709
10:00+10зюз610585 0.1 10151393
13:00+12юз9125398 0.7 10152071
16:00+12юз7114896 1.4 10152215
19:00+10зюз3657100 0.1 1016187
22:00+8ююз3566100 0.1 101686